sat.trackr.live / text

‹ back to catalog

STARLINK-5734

NORAD 55612 · 2023-020AV

PAYLOAD ACTIVE UNKNOWN

§ Identity

Operator
Country
US
Launch date
2023-02-12
Launch site
AFETR
Launch vehicle
Mass (kg)
RCS (m²)

Purposes: comms

External: N2YO · Heavens-Above · Gunter

§ Orbital elements

Epoch: 2026-05-24T20:35:26.116224Z

Period
94.32 min
Inclination
43.0084°
Eccentricity
0.0002601
Mean motion
15.26739728 rev/d
Perigee alt
483.8 km
Apogee alt
487.4 km
Semi-major
6,863.7 km
B*
1.6997e-5
RAAN
284.4717°
Arg perigee
286.9800°
Mean anomaly
73.0767°
Rev number
18,068

§ Raw data

STARLINK-57341 55612U 23020AV  26144.85794116  .00000195  00000+0  16997-4 0  99942 55612  43.0084 284.4717 0002601 286.9800  73.0767 15.26739728180688

JSON: /api/v1/satellites/55612 · /tle

For live sub-satellite position, see the globe view (requires WebGL).

§ Visibility from observer

Set your observer location to see the next 7 days of passes ≥ 10°. The values pass through the URL so the page stays shareable.

No JS? Fill the form by hand. The geolocation button needs JavaScript.